Location: *
(46.4000°N, 12.6667°E)
Time: 05:07:44
(UTC+00:00)

Envisat - Pass Details

Date: 05 December 2021
Orbit: 764 x 766 km, 98.2° (Epoch: 16 January)

Event Time Altitude Azimuth Distance (km) Brightness Sun altitude
Rises 04:53:31 0° 8° (N) 3,245 6.2 -17.1°
Reaches altitude 10° 04:55:54 10° 2° (N) 2,314 5.4 -16.7°
Maximum altitude 05:00:44 45° 291° (WNW) 1,037 3.2 -15.9°
Drops below altitude 10° 05:05:32 10° 220° (SW) 2,297 5.2 -15.1°
Sets 05:07:54 0° 214° (SW) 3,218 6.1 -14.7°
